Preview of NWS' New Version of Forecast
This preview is not operational and should not be used for support decisions.

Regional Weather Roundup (RWR)

Issued by National Weather Service (NWS)

                            
000
ASUS44 KMEG 182010
RWRTN 
TENNESSEE HOURLY STATE WEATHER ROUNDUP
NATIONAL WEATHER SERVICE MEMPHIS TN
300 PM CDT MON MAR 18 2019

TNZ002-004-019-021-049-052-054-088>092-182100-
WEST TENNESSEE
  
CITY           SKY/WX    TMP DP  RH WIND       PRES   REMARKS
MEMPHIS INTL   FAIR      59  28  30 N10       30.35F                  
NWS MEMPHIS      N/A     58 N/A N/A MISG        N/A                   
JACKSON        FAIR      55  25  31 N5        30.36F                  
DYERSBURG      FAIR      55  29  36 N8        30.38F                  
SOMERVILLE     SUNNY     57  27  30 N8G15     30.34F                  
COVINGTON      PTSUNNY   55  30  38 VRB6G14   30.36F                  
UNION CITY     MOSUNNY   54  25  32 NE8       30.36F                  
BOLIVAR        SUNNY     57  27  30 W6G14     30.34F                  
PARIS          SUNNY     52  18  25 VRB7G16   30.35F                  
HUNTINGDON     SUNNY     54  21  28 NW3G15    30.35F                  
LEXINGTON      SUNNY     54  19  26 NE8G16    30.33F                  
SAVANNAH       SUNNY     55  21  26 N7G14     30.34F                  
$$

TNZ008-025-027-028-033-062-065-066-182100-
NORTH MIDDLE TENNESSEE
  
CITY           SKY/WX    TMP DP  RH WIND       PRES   REMARKS
NASHVILLE      FAIR      53  17  24 NE9G18    30.36F                  
DICKSON        CLEAR     52  18  25 CALM      30.33F                  
CLARKSVILLE    FAIR      51  16  24 CALM      30.36F                  
LEBANON        PTCLDY    52  19  28 N12G24    30.33F                  
SMYRNA         FAIR      53  19  26 NW10G17   30.36F                  
MURFREESBORO   CLEAR     52  16  24 N14       30.33F                  
COOKEVILLE     MOSUNNY   50  19  29 N5G15     30.31F                  
LIVINGSTON     PTCLDY    46  18  31 NE9G18    30.31F                  
GALLATIN       CLEAR     52  19  28 N12G18    30.38F                  
CROSSVILLE     FAIR      46  14  27 NW8G23    30.29F                  
ROCKWOOD       PTCLDY    48  10  21 N9G21     30.27F                  
$$

TNZ061-075-076-078-094-096-097-182100-
SOUTH MIDDLE TENNESSEE
  
CITY           SKY/WX    TMP DP  RH WIND       PRES   REMARKS
LAWRENCEBURG   CLEAR     52  18  25 VRB7G15   30.32F                  
LEWISBURG      CLEAR     52  16  24 MISG      30.34S                  
FAYETTEVILLE   SUNNY     54  21  28 N14       30.31F                  
TULLAHOMA      SUNNY     52  18  25 VRB7G17   30.32S                  
WINCHESTER     SUNNY     52  19  28 NE14      30.31F                  
MCMINNVILLE    MOSUNNY   50  18  27 NE7       30.32F                  
COLUMBIA       SUNNY     54  12  19 VRB7      30.32F                  
SHELBYVILLE    SUNNY     52  21  30 VRB7G16   30.35S                  
$$

TNZ017-018-042-046-047-182100-
NORTHEAST TENNESSEE
  
CITY           SKY/WX    TMP DP  RH WIND       PRES   REMARKS
TRI CITIES     PTSUNNY   47  15  27 N13G18    30.27F                  
ELIZABETHTON   PTSUNNY   46  16  29 VRB6G15   30.26S                  
GREENEVILLE    CLOUDY    46  10  23 NW8G15    30.26F                  
$$

TNZ012-013-036-069-073-074-182100-
CENTRAL EAST TENNESSEE
  
CITY           SKY/WX    TMP DP  RH WIND       PRES   REMARKS
KNOXVILLE      FAIR      51  13  21 NE8G20    30.28F                  
OAK RIDGE      FAIR      55  15  20 VRB6G18   30.30F                  
DOWNTOWN KNOXV SUNNY     52  12  20 VRB6G15   30.30F                  
GATLINBURG     MOSUNNY   50  10  20 NE7       30.29S                  
MORRISTOWN     PTSUNNY   50  16  25 NW10      30.27F                  
JACKSBORO      PTSUNNY   48  14  25 NE14G21   30.33F                  
$$

TNZ083-085-099-182100-
SOUTHEAST TENNESSEE
  
CITY           SKY/WX    TMP DP  RH WIND       PRES   REMARKS
CHATTANOOGA    FAIR      56  11  16 N9        30.28F                  
DAYTON         CLEAR     54  14  20 N9G17     30.28F                  
$$

SKY/WX REPORTED AS FAIR MEANS FEW OR NO CLOUDS BELOW
12 THOUSAND FEET.